(163226) = 2002 EA103

Discovered at Nogales on 2002-03-09 by Tenagra II.

Orbit

Orbit type: Main Belt

Note: WebGL enabled browser required.

epoch2024-03-31.0
epoch JD2460400.5
perihelion date2023-03-30.86900
perihelion JD2460034.36900
argument of perihelion (°)329.40574
ascending node (°)356.10346
inclination (°)0.74895
eccentricity0.1954111
perihelion distance (AU)1.9906200
Tisserand w.r.t. Jupiter3.5
ΔV w.r.t. Earth (km/sec)8.8
semimajor axis (AU)2.4740835
mean anomaly (°)92.72969
mean daily motion (°/day)0.25326920
aphelion distance (AU)2.958
period (years)3.89
P-vector [x]0.82422001
P-vector [y]-0.51686016
P-vector [z]-0.23133730
Q-vector [x]0.56626900
Q-vector [y]0.75166142
Q-vector [z]0.33814868
absolute magnitude16.13
phase slope0.15
uncertainty0
referenceMPEC 2024-D136
observations used1005
oppositions18
arc length (days)11417
first opposition used1992
last opposition used2024
residual rms (arc-secs)0.68
perturbers coarse indicatorM-v
perturbers precise indicator003Ek
first observation date used1992-11-25.0
last observation date used2024-02-28.0
computer nameMPCLINUX
JD of orbit computation2456937.299600
perihelion JD uncertainty (days)2.9946E-05
argument of perihelion uncertainty (°)2.0615E-04
ascending node uncertainty (°)2.0596E-04
inclination uncertainty (°)4.9934E-06
eccentricity uncertainty 4.7104E-08
perihelion distance uncertainty (AU)1.1940E-07
Minimum Orbit Intersection Distances (in AU)
for orbit epoch: 2460400.5, reference: E2024-DD6
Mercury1.57653
Venus1.26389
Earth0.97859
Mars0.60716
Jupiter2.3643
Saturn6.20918
Uranus15.5009
Neptune27.2869

Observations

1011 total observations over interval: 1992 11 25.27181 – 2024 02 28.253848
These data are available for download (format description).

Date (UT) J2000 RA J2000 Dec Magn Location Ref
1992 11 25.27181 03 52 13.28 +21 22 38.1 19.1 V 691 – Steward Observatory, Kitt Peak-Spacewatch MPS 172771
1992 11 25.29786 03 52 11.53 +21 22 33.3   691 – Steward Observatory, Kitt Peak-Spacewatch MPS 172771
2001 01 01.30428 05 21 46.16 +24 19 23.4 21.7 V 691 – Steward Observatory, Kitt Peak-Spacewatch MPS 172771
2001 01 01.30899 05 21 45.91 +24 19 23.4 20.9 V 691 – Steward Observatory, Kitt Peak-Spacewatch MPS 172771
2001 01 01.31553 05 21 45.50 +24 19 22.8 21.0 V 691 – Steward Observatory, Kitt Peak-Spacewatch MPS 172771
2002 02 12.43277 11 34 53.87 +02 59 05.7 21.2 V 691 – Steward Observatory, Kitt Peak-Spacewatch MPS 54956
2002 02 12.45371 11 34 53.05 +02 59 10.7 21.2 V 691 – Steward Observatory, Kitt Peak-Spacewatch MPS 54956
2002 02 12.47545 11 34 52.17 +02 59 15.6 21.5 V 691 – Steward Observatory, Kitt Peak-Spacewatch MPS 54956
2002 03 09.26450 11 14 44.05 +05 03 10.8 19.8 R 926 – Tenagra II Observatory, Nogales MPS 54956
2002 03 09.27373 11 14 43.51 +05 03 14.1 19.6 R 926 – Tenagra II Observatory, Nogales MPS 54956
2002 03 10.95689 11 13 11.14 +05 12 33.4 19.7 V 209 – Asiago Observatory, Cima Ekar-ADAS MPS 54956
2002 03 10.97785 11 13 09.94 +05 12 40.0 19.6 V 209 – Asiago Observatory, Cima Ekar-ADAS MPS 54956
2002 03 10.99897 11 13 08.77 +05 12 47.5 20.0 V 209 – Asiago Observatory, Cima Ekar-ADAS MPS 54956
2002 03 11.94729 11 12 16.83 +05 18 01.9 20.2   209 – Asiago Observatory, Cima Ekar-ADAS MPS 67926
2002 03 11.96879 11 12 15.61 +05 18 08.7 20.2   209 – Asiago Observatory, Cima Ekar-ADAS MPS 67926
2002 03 11.99085 11 12 14.37 +05 18 16.2 20.5   209 – Asiago Observatory, Cima Ekar-ADAS MPS 67926
2002 03 15.24764 11 09 17.16 +05 36 07.3 19.4   704 – Lincoln Laboratory ETS, New Mexico MPS 54956
2002 03 15.26104 11 09 16.33 +05 36 12.9 20.1   704 – Lincoln Laboratory ETS, New Mexico MPS 54956
2002 03 15.27448 11 09 15.66 +05 36 15.2 20.1   704 – Lincoln Laboratory ETS, New Mexico MPS 54956
2002 03 15.30619 11 09 13.75 +05 36 27.4 19.8   704 – Lincoln Laboratory ETS, New Mexico MPS 54956
2002 04 06.03527 10 52 22.64 +07 15 48.9 19.1 R 807 – Cerro Tololo Observatory, La Serena MPS 61211
2002 04 06.13681 10 52 18.88 +07 16 09.7   807 – Cerro Tololo Observatory, La Serena MPS 61211
2002 04 10.24103 10 50 03.62 +07 28 51.9 19.8 R 695 – Kitt Peak MPS 65851
2002 04 10.31805 10 50 01.21 +07 29 04.8   695 – Kitt Peak MPS 65851
2003 07 01.39577 19 40 32.43 -22 49 58.5 20.4   608 – Haleakala-AMOS MPS 202311
2003 07 01.40679 19 40 31.88 -22 49 59.2 20.1   608 – Haleakala-AMOS MPS 202311
2003 07 01.41777 19 40 31.34 -22 50 01.2 20.4   608 – Haleakala-AMOS MPS 202311
2006 02 07.43194 12 13 45.12 -01 21 07.6 21.1 V G96 – Mt. Lemmon Survey MPS 172771
2006 02 07.43855 12 13 44.94 -01 21 06.5 20.3 V G96 – Mt. Lemmon Survey MPS 172771
2006 02 07.44527 12 13 44.86 -01 21 06.3 21.0 V G96 – Mt. Lemmon Survey MPS 172771
2006 02 07.45220 12 13 44.68 -01 21 05.5 21.2 V G96 – Mt. Lemmon Survey MPS 172771
2006 02 20.39886 12 07 49.33 -00 45 05.3   691 – Steward Observatory, Kitt Peak-Spacewatch MPS 172771
2006 02 20.41615 12 07 48.68 -00 45 01.2   691 – Steward Observatory, Kitt Peak-Spacewatch MPS 172771
2006 02 20.43471 12 07 48.00 -00 44 56.9   691 – Steward Observatory, Kitt Peak-Spacewatch MPS 172771
2006 03 21.29449 11 44 22.81 +01 40 30.2 20.0 V G96 – Mt. Lemmon Survey MPS 172771
2006 03 21.29998 11 44 22.52 +01 40 31.9 19.8 V G96 – Mt. Lemmon Survey MPS 172771
2006 03 21.30554 11 44 22.20 +01 40 33.7 19.9 V G96 – Mt. Lemmon Survey MPS 172771
2006 03 21.31095 11 44 21.91 +01 40 35.7 19.7 V G96 – Mt. Lemmon Survey MPS 172771
2006 04 21.16704 11 21 40.71 +03 59 35.2 20.5 V G96 – Mt. Lemmon Survey MPS 172771
2006 04 21.17494 11 21 40.50 +03 59 36.7 20.3 V G96 – Mt. Lemmon Survey MPS 172771
2006 04 21.18259 11 21 40.28 +03 59 38.2 20.8 V G96 – Mt. Lemmon Survey MPS 172771
2006 04 21.19041 11 21 40.06 +03 59 39.6 20.6 V G96 – Mt. Lemmon Survey MPS 172771
2006 05 24.20748 11 19 40.11 +04 07 05.2 20.8 V G96 – Mt. Lemmon Survey MPS 173564
2006 05 24.21473 11 19 40.26 +04 07 04.4 20.8 V G96 – Mt. Lemmon Survey MPS 173564
2006 05 24.22187 11 19 40.40 +04 07 03.2 21.1 V G96 – Mt. Lemmon Survey MPS 173564
2006 05 24.22910 11 19 40.54 +04 07 02.3 21.1 V G96 – Mt. Lemmon Survey MPS 173564
2007 07 16.30589 21 27 04.86 -16 11 36.4 19.0 C 704 – Lincoln Laboratory ETS, New Mexico MPS 291358
2007 07 16.31645 21 27 04.50 -16 11 38.0 19.7 C 704 – Lincoln Laboratory ETS, New Mexico MPS 291358
2007 07 16.32638 21 27 04.19 -16 11 39.2 18.9 C 704 – Lincoln Laboratory ETS, New Mexico MPS 291358
2007 07 16.33658 21 27 03.89 -16 11 41.5 18.9 C 704 – Lincoln Laboratory ETS, New Mexico MPS 291358
2007 07 19.30895 21 25 29.12 -16 18 50.6 18.8   704 – Lincoln Laboratory ETS, New Mexico MPS 211975
2007 07 19.31907 21 25 28.73 -16 18 54.3 19.2   704 – Lincoln Laboratory ETS, New Mexico MPS 211975
2007 07 19.32934 21 25 28.28 -16 18 56.3 19.2   704 – Lincoln Laboratory ETS, New Mexico MPS 211975
2007 08 06.61601 21 11 42.20 -17 16 38.1 18.1 R D35 – Lulin Observatory MPS 212492
2007 08 06.62500 21 11 41.70 -17 16 39.8 17.9 R D35 – Lulin Observatory MPS 212492
2007 08 06.63400 21 11 41.20 -17 16 42.0 18.0 R D35 – Lulin Observatory MPS 212492
2007 08 09.23604 21 09 25.72 -17 25 24.8 18.8   704 – Lincoln Laboratory ETS, New Mexico MPS 212492
2007 08 09.24787 21 09 25.08 -17 25 27.4 18.8   704 – Lincoln Laboratory ETS, New Mexico MPS 212492
2007 08 09.25969 21 09 24.41 -17 25 29.6 18.9   704 – Lincoln Laboratory ETS, New Mexico MPS 212492
2007 08 15.20772 21 04 18.60 -17 44 19.7 18.4   704 – Lincoln Laboratory ETS, New Mexico MPS 213674
2007 08 15.22013 21 04 17.91 -17 44 23.2 18.7   704 – Lincoln Laboratory ETS, New Mexico MPS 213674
2007 08 15.23252 21 04 17.21 -17 44 25.1 18.6   704 – Lincoln Laboratory ETS, New Mexico MPS 213674
2007 08 15.24491 21 04 16.56 -17 44 27.8 18.6   704 – Lincoln Laboratory ETS, New Mexico MPS 213674
2007 08 15.25729 21 04 15.90 -17 44 30.1 18.5   704 – Lincoln Laboratory ETS, New Mexico MPS 213674
2007 09 06.12778 20 50 50.15 -18 24 48.1 18.8   704 – Lincoln Laboratory ETS, New Mexico MPS 215027
2007 09 06.13976 20 50 49.91 -18 24 49.3 19.4   704 – Lincoln Laboratory ETS, New Mexico MPS 215027
2007 09 06.15173 20 50 49.64 -18 24 48.7 19.0   704 – Lincoln Laboratory ETS, New Mexico MPS 215027
2007 09 06.17563 20 50 49.17 -18 24 49.8 18.8   704 – Lincoln Laboratory ETS, New Mexico MPS 215027
2007 09 10.19577 20 49 50.34 -18 25 44.2 19.0 V G96 – Mt. Lemmon Survey MPS 215027
2007 09 10.20237 20 49 50.23 -18 25 44.4 19.0 V G96 – Mt. Lemmon Survey MPS 215027
2007 09 10.20903 20 49 50.12 -18 25 44.2 18.9 V G96 – Mt. Lemmon Survey MPS 215027
2007 09 10.21561 20 49 50.05 -18 25 44.5 18.5 V G96 – Mt. Lemmon Survey MPS 215027
2007 10 04.14421 20 55 32.52 -17 45 57.8 19.6 V G96 – Mt. Lemmon Survey MPS 218389
2007 10 04.14911 20 55 32.70 -17 45 56.8 19.6 V G96 – Mt. Lemmon Survey MPS 218389
2007 10 04.15416 20 55 32.84 -17 45 55.8 19.5 V G96 – Mt. Lemmon Survey MPS 218389
2007 10 04.15911 20 55 33.02 -17 45 54.8 19.5 V G96 – Mt. Lemmon Survey MPS 218389
2007 10 12.13571 21 01 28.99 -17 16 22.9 19.5 V G96 – Mt. Lemmon Survey MPS 220079
2007 10 12.14226 21 01 29.31 -17 16 20.8 19.7 V G96 – Mt. Lemmon Survey MPS 220079
2007 10 12.14875 21 01 29.64 -17 16 19.3 19.8 V G96 – Mt. Lemmon Survey MPS 220079
2007 10 12.15523 21 01 29.96 -17 16 18.0 19.7 V G96 – Mt. Lemmon Survey MPS 220079
2007 10 31.09720 21 21 52.56 -15 35 53.0 20.0 V G96 – Mt. Lemmon Survey MPS 224493
2007 10 31.10159 21 21 52.88 -15 35 51.2 20.1 V G96 – Mt. Lemmon Survey MPS 224494
2007 10 31.10599 21 21 53.20 -15 35 49.3 20.0 V G96 – Mt. Lemmon Survey MPS 224494
2007 10 31.11040 21 21 53.53 -15 35 47.9 20.0 V G96 – Mt. Lemmon Survey MPS 224494
2008 01 12.07866 23 21 44.02 -03 55 11.3 20.5 V G96 – Mt. Lemmon Survey MPS 234994
2008 01 12.08482 23 21 44.71 -03 55 06.8 20.1 V G96 – Mt. Lemmon Survey MPS 234994
2008 01 12.09097 23 21 45.36 -03 55 02.7 20.4 V G96 – Mt. Lemmon Survey MPS 234994
2008 01 12.09715 23 21 46.04 -03 54 58.0 20.3 V G96 – Mt. Lemmon Survey MPS 234994
2008 12 04.31931 07 37 03.68 +22 38 11.5 20.6 V G96 – Mt. Lemmon Survey MPS 268651
